DW0031 Weather Reports


Display with metric or nautical units.
time (UTC)temp
F
wind
direction
speed
MPH
gust
MPH
rain 1hr
in
rain 24hr
in
rain mn
in
humidity
%
barometer
mb
20200401121720 39 96 2.0 0.0 0.00 0.00 0.00 88 1008.0
20200401120137 39 67 1.0 0.0 0.00 0.00 0.00 90 1007.7
20200401114654 39 360 1.0 0.0 0.00 0.00 0.00 90 1007.5
20200401113333 39 88 1.0 0.0 0.00 0.00 0.00 91 1007.3
20200401111633 39 80 1.0 0.0 0.00 0.00 0.00 91 1007.2
20200401110233 39 61 1.0 0.0 0.00 0.00 0.00 91 1007.6
20200401104634 39 76 2.0 0.0 0.00 0.00 0.00 92 1007.3
20200401103241 39 79 0.0 0.0 0.00 0.00 0.00 92 1006.9
20200401101702 39 80 0.0 0.0 0.00 0.00 0.00 92 1007.0
20200401100115 39 80 0.0 0.0 0.00 0.00 0.00 91 1007.1
20200401094620 39 80 1.0 0.0 0.00 0.00 0.00 90 1006.8
20200401093116 39 74 1.0 0.0 0.00 0.00 0.00 90 1006.8
20200401091841 39 99 1.0 0.0 0.00 0.00 0.00 89 1006.7
20200401090156 40 102 2.0 0.0 0.00 0.00 0.00 89 1006.8
20200401084646 40 100 2.0 0.0 0.00 0.00 0.00 88 1007.1
20200401083159 40 84 2.0 0.0 0.00 0.00 0.00 89 1007.2
20200401081651 40 87 1.0 0.0 0.00 0.00 0.00 90 1007.7
20200401080227 40 121 0.0 0.0 0.00 0.00 0.00 90 1007.8
20200401074711 40 124 1.0 0.0 0.00 0.00 0.00 90 1007.5
20200401073121 39 116 0.0 0.0 0.00 0.00 0.00 90 1007.7
20200401071708 39 109 2.0 0.0 0.00 0.00 0.00 89 1007.2
20200401070222 40 114 1.0 0.0 0.00 0.00 0.00 89 1008.0
20200401064637 40 114 3.0 0.0 0.00 0.00 0.00 89 1008.3
20200401063112 40 100 2.0 0.0 0.00 0.00 0.00 89 1008.6
20200401061612 40 117 4.0 0.0 0.00 0.00 0.00 89 1008.7
20200401060051 40 94 2.0 0.0 0.00 0.00 0.00 89 1008.8
20200401054543 40 114 1.0 0.0 0.00 0.00 0.00 89 1009.2
20200401053054 40 148 1.0 0.0 0.00 0.00 0.00 89 1009.7
20200401051608 40 122 0.0 0.0 0.00 0.00 0.00 89 1009.2
20200401050053 40 120 2.0 0.0 0.00 0.00 0.00 89 1009.3
20200401044549 40 119 2.0 0.0 0.00 0.00 0.00 88 1009.6
20200401043016 41 139 3.0 0.0 0.00 0.00 0.00 88 1009.6
20200401041515 41 127 1.0 0.0 0.00 0.00 0.00 88 1009.9
20200401040033 41 133 1.0 0.0 0.00 0.00 0.00 88 1010.0
20200401034538 41 153 0.0 0.0 0.00 0.00 0.01 88 1010.0
20200401033018 41 153 0.0 0.0 0.00 0.00 0.01 87 1010.3
20200401031517 41 153 0.0 0.0 0.00 0.00 0.01 87 1010.6
20200401030020 41 153 0.0 0.0 0.00 0.00 0.01 87 1010.8
20200401024506 41 154 0.0 0.0 0.00 0.00 0.01 89 1010.9
20200401023502 41 154 0.0 0.0 0.00 0.00 0.01 88 1011.2
20200401021634 41 155 1.0 0.0 0.00 0.00 0.01 88 1011.9
20200401020202 41 164 1.0 0.0 0.00 0.00 0.01 88 1012.0
20200401014726 42 135 1.0 0.0 0.00 0.00 0.01 88 1012.1
20200401013125 42 143 1.0 0.0 0.00 0.00 0.01 88 1012.2
20200401011633 42 149 0.0 0.0 0.00 0.00 0.01 88 1012.6
20200401010203 42 147 1.0 0.0 0.00 0.00 0.01 88 1012.7
20200401004703 42 141 1.0 0.0 0.00 0.00 0.01 88 1012.0
20200401003112 42 155 1.0 0.0 0.00 0.00 0.01 88 1011.8
20200401001620 42 146 1.0 0.0 0.00 0.00 0.01 88 1011.9
20200401000211 43 150 0.0 0.0 0.00 0.00 0.01 89 1012.1
20200331234603 43 144 1.0 0.0 0.00 0.00 0.01 89 1012.0
20200331233221 43 136 1.0 0.0 0.00 0.00 0.01 89 1011.7
20200331231832 43 134 1.0 0.0 0.00 0.00 0.01 89 1011.6
20200331230148 43 127 2.0 0.0 0.00 0.00 0.01 89 1011.4
20200331224626 44 126 1.0 0.0 0.00 0.00 0.01 88 1011.2
20200331223133 44 126 0.0 0.0 0.00 0.00 0.01 87 1011.4
20200331221615 44 128 1.0 0.0 0.00 0.00 0.01 87 1011.4
20200331220109 44 134 1.0 0.0 0.00 0.00 0.01 87 1011.3
20200331214602 45 111 1.0 0.0 0.00 0.00 0.01 87 1011.6
20200331213129 45 111 1.0 0.0 0.00 0.00 0.01 86 1011.6
20200331211627 45 114 1.0 0.0 0.00 0.00 0.01 87 1011.7
20200331210126 45 133 1.0 0.0 0.00 0.00 0.01 87 1011.6
20200331204637 45 126 2.0 0.0 0.00 0.00 0.01 86 1011.7
20200331203124 45 123 1.0 0.0 0.00 0.00 0.01 86 1011.7
20200331201550 45 116 1.0 0.0 0.00 0.00 0.01 87 1012.1
20200331200105 45 121 1.0 0.0 0.00 0.00 0.01 87 1012.3
20200331194656 45 130 1.0 0.0 0.00 0.00 0.01 87 1012.4
20200331193135 45 148 1.0 0.0 0.00 0.00 0.01 87 1012.8
20200331191607 44 155 2.0 0.0 0.00 0.00 0.01 87 1012.9
20200331190112 44 117 0.0 0.0 0.00 0.00 0.01 88 1013.1
20200331184542 44 121 1.0 0.0 0.00 0.00 0.01 89 1013.4
20200331183316 44 144 1.0 0.0 0.00 0.00 0.01 89 1013.4
20200331181608 44 144 1.0 0.0 0.00 0.00 0.01 90 1013.5
20200331180135 44 156 1.0 0.0 0.00 0.00 0.01 91 1013.7
20200331174541 44 121 2.0 0.0 0.00 0.00 0.01 91 1013.6
20200331173051 44 112 5.0 0.0 0.00 0.00 0.01 91 1013.7
20200331171609 44 139 3.0 0.0 0.00 0.00 0.01 92 1013.7
20200331170044 43 132 2.0 0.0 0.00 0.00 0.01 94 1013.7
20200331164537 43 98 2.0 0.0 0.00 0.00 0.01 96 1014.0
20200331163045 42 102 4.0 0.0 0.00 0.00 0.01 96 1014.2
20200331161536 42 126 4.0 0.0 0.00 0.00 0.01 98 1014.6
20200331160038 42 113 3.0 0.0 0.00 0.00 0.01 98 1014.5
20200331154540 41 150 4.0 0.0 0.00 0.00 0.01 98 1014.5
20200331153035 41 136 5.0 0.0 0.00 0.00 0.01 98 1014.3
20200331151535 42 148 3.0 0.0 0.00 0.00 0.01 98 1014.3
20200331150041 42 101 3.0 0.0 0.00 0.00 0.01 98 1014.6
20200331144530 42 132 3.0 0.0 0.00 0.00 0.01 98 1014.9
20200331143053 42 121 5.0 0.0 0.00 0.00 0.01 98 1015.0
20200331141539 42 132 3.0 0.0 0.00 0.00 0.01 98 1015.0
20200331140025 42 143 3.0 0.0 0.00 0.00 0.01 98 1015.0
20200331134532 42 128 4.0 0.0 0.00 0.00 0.01 98 1014.9
20200331133020 42 130 2.0 0.0 0.00 0.00 0.00 98 1014.8
20200331131525 42 153 1.0 0.0 0.00 0.00 0.00 98 1014.9
20200331130011 42 115 1.0 0.0 0.00 0.00 0.00 98 1014.8
20200331124514 43 124 3.0 0.0 0.00 0.00 0.00 97 1014.6
20200331123018 43 120 3.0 0.0 0.00 0.00 0.00 97 1014.1